Flag for Canada Weather past 2 weeks in Owen Sound, Ontario, Canada

Now
55 °F

Partly sunny.


Feels Like: 54 °F
Forecast: 46 / 64 °F
Wind: 7 mph from Southwest

Location: Wiarton

Current Time: Sep 17, 2014 at 9:49:42 AM

Latest Report: Sep 17, 2014 at 9:00 AM


Visibility: 15 mi

Pressure: 30.00 "Hg

Humidity: 82%

Dew point: 50 °F

Location of Owen SoundLocation

Historic Weather in Owen Sound — Graph

°F

Owen Sound temperature yesterday

Maximum temperature yesterday: 59 °F (at 12:00 PM)
Minimum temperature yesterday: 43 °F (at 2:00 AM)
Average temperature yesterday: 52 °F

Past Weeks' High & Low Weather Summary

 TemperatureHumidityPressure
High82 °F (Sep 4, 2:00 PM)100% (Sep 3, 12:00 AM)30.34 "Hg (Sep 3, 12:00 AM)
Low43 °F (Sep 16, 2:00 AM)36% (Sep 8, 2:00 PM)29.45 "Hg (Sep 11, 12:00 AM)
Average60 °F82%30.05 "Hg
* Reported Sep 2 8:00 AM — Sep 17 8:00 AM, Owen Sound, Weather by CustomWeather, © 2014

Note: Actual official high and low records may vary slightly from our data, if they occured in-between our weather recording intervals... More about our weather records

Advertising

Owen Sound weather history for previous 24 hours

 ConditionsComfort  
Time TempWeatherWind HumidityBarometerVisibility
8:00 AM
Sep 17
50 °FPassing clouds.6 mph88%30.00 "Hg15 mi
7:00 AM48 °FPassing clouds.6 mph87%29.99 "Hg15 mi
6:00 AM48 °FPassing clouds.7 mph87%29.99 "Hg15 mi
5:00 AM45 °FPassing clouds.6 mph100%29.99 "Hg15 mi
4:00 AM46 °FClear.5 mph87%30.00 "Hg15 mi
3:00 AM45 °FClear.3 mph93%30.01 "Hg15 mi
2:00 AM46 °FClear.3 mph93%30.01 "Hg15 mi
1:00 AM46 °FClear.5 mph93%30.02 "Hg15 mi
12:00 AM48 °FClear.7 mph94%30.02 "Hg15 mi
11:00 PM
Sep 16
48 °FClear.7 mph94%30.03 "Hg15 mi
10:00 PM48 °FPassing clouds.7 mph94%30.03 "Hg15 mi
9:00 PM48 °FClear.7 mph94%30.04 "Hg15 mi
8:00 PM52 °FPassing clouds.5 mph82%30.04 "Hg15 mi
7:00 PM57 °FPassing clouds.6 mph67%30.05 "Hg15 mi
6:00 PM59 °FPassing clouds.10 mph63%30.05 "Hg15 mi
5:00 PM57 °FScattered clouds.9 mph63%30.05 "Hg15 mi
4:00 PM57 °FScattered clouds.10 mph63%30.06 "Hg15 mi
3:00 PM57 °FScattered clouds.13 mph63%30.07 "Hg15 mi
2:00 PM59 °FScattered clouds.10 mph59%30.08 "Hg15 mi
1:00 PM59 °FPassing clouds.10 mph55%30.08 "Hg15 mi
12:00 PM59 °FPassing clouds.9 mph59%30.09 "Hg15 mi
11:00 AM57 °FPassing clouds.10 mph63%30.10 "Hg15 mi
10:00 AM54 °FPassing clouds.5 mph77%30.12 "Hg15 mi
9:00 AM52 °FPassing clouds.5 mph77%30.11 "Hg15 mi
Weather by CustomWeather, © 2014

See weather overviewHow to use our weather pages